Time,TemperatureF,DewpointF,PressureIn,WindDirection,WindDirectionDegrees,WindSpeedMPH,WindSpeedGustMPH,Humidity,HourlyPrecipIn,Conditions,Clouds,dailyrainin,SolarRadiationWatts/m^2,SoftwareType,DateUTC
2013-03-04 00:00:00,33.5,28.6,30.06,WNW,289,0.0,0.0,82,0.00,CLR,,0.00,0.0,WeatherDisplay:10.37,2013-03-04 05:00:00,
2013-03-04 00:05:00,33.5,28.6,30.06,WNW,289,0.0,0.0,82,0.00,CLR,,0.00,0.0,WeatherDisplay:10.37,2013-03-04 05:05:00,
2013-03-04 00:10:00,33.3,28.4,30.06,WNW,289,0.0,0.0,82,0.00,CLR,,0.00,0.0,WeatherDisplay:10.37,2013-03-04 05:10:00,
2013-03-04 00:15:00,33.3,28.7,30.06,WNW,289,0.0,0.0,83,0.00,CLR,,0.00,0.0,WeatherDisplay:10.37,2013-03-04 05:15:00,
2013-03-04 00:20:00,33.1,28.5,30.06,WNW,289,0.0,0.0,83,0.00,CLR,,0.00,0.0,WeatherDisplay:10.37,2013-03-04 05:20:00,
2013-03-04 00:25:00,32.9,28.3,30.06,WNW,289,0.0,0.0,83,0.00,CLR,,0.00,0.0,WeatherDisplay:10.37,2013-03-04 05:25:00,
2013-03-04 00:30:00,32.9,28.6,30.06,WNW,289,0.0,0.0,84,0.00,CLR,,0.00,0.0,WeatherDisplay:10.37,2013-03-04 05:30:00,
2013-03-04 00:35:00,32.9,28.6,30.06,WNW,289,0.0,0.0,84,0.00,CLR,,0.00,0.0,WeatherDisplay:10.37,2013-03-04 05:35:00,
2013-03-04 00:40:00,32.8,28.5,30.06,WNW,289,0.0,0.0,84,0.00,CLR,,0.00,0.0,WeatherDisplay:10.37,2013-03-04 05:40:00,
2013-03-04 00:45:00,32.4,28.1,30.06,WNW,289,0.0,0.0,84,0.00,CLR,,0.00,0.0,WeatherDisplay:10.37,2013-03-04 05:45:00,
2013-03-04 00:50:00,32.5,28.5,30.06,WNW,289,0.0,0.0,85,0.00,CLR,,0.00,0.0,WeatherDisplay:10.37,2013-03-04 05:50:00,
2013-03-04 00:55:00,32.3,28.3,30.06,WNW,289,0.0,0.0,85,0.00,CLR,,0.00,0.0,WeatherDisplay:10.37,2013-03-04 05:55:00,
2013-03-04 01:00:00,32.1,28.1,30.06,WNW,289,0.0,0.0,85,0.00,CLR,,0.00,0.0,WeatherDisplay:10.37,2013-03-04 06:00:00,
2013-03-04 01:05:00,31.9,27.9,30.06,WNW,289,0.0,0.0,85,0.00,CLR,,0.00,0.0,WeatherDisplay:10.37,2013-03-04 06:05:00,
2013-03-04 01:10:00,31.9,28.2,30.06,WNW,289,0.0,0.0,86,0.00,CLR,,0.00,0.0,WeatherDisplay:10.37,2013-03-04 06:10:00,
2013-03-04 01:15:00,31.9,28.2,30.06,WNW,289,0.0,0.0,86,0.00,CLR,,0.00,0.0,WeatherDisplay:10.37,2013-03-04 06:15:00,
2013-03-04 01:20:00,31.9,28.5,30.06,WNW,289,0.0,0.0,87,0.00,CLR,,0.00,0.0,WeatherDisplay:10.37,2013-03-04 06:20:00,
2013-03-04 01:25:00,31.9,28.5,30.06,WNW,289,0.0,0.0,87,0.00,CLR,,0.00,0.0,WeatherDisplay:10.37,2013-03-04 06:25:00,
2013-03-04 01:30:00,31.9,28.5,30.06,WNW,289,0.0,0.0,87,0.00,CLR,,0.00,0.0,WeatherDisplay:10.37,2013-03-04 06:30:00,
2013-03-04 01:35:00,32.0,28.6,30.06,WNW,289,0.0,0.0,87,0.00,CLR,,0.00,0.0,WeatherDisplay:10.37,2013-03-04 06:35:00,
2013-03-04 01:40:00,32.1,28.7,30.06,WNW,289,0.0,0.0,87,0.00,CLR,,0.00,0.0,WeatherDisplay:10.37,2013-03-04 06:40:00,
2013-03-04 01:45:00,31.7,28.3,30.06,WNW,289,0.0,0.0,87,0.00,CLR,,0.00,0.0,WeatherDisplay:10.37,2013-03-04 06:45:00,
2013-03-04 01:50:00,31.5,28.1,30.06,WNW,289,0.0,0.0,87,0.00,CLR,,0.00,0.0,WeatherDisplay:10.37,2013-03-04 06:50:00,
2013-03-04 01:55:00,31.5,28.4,30.06,WNW,289,0.0,0.0,88,0.00,CLR,,0.00,0.0,WeatherDisplay:10.37,2013-03-04 06:55:00,
2013-03-04 02:00:00,31.5,28.1,30.06,WNW,289,0.0,0.0,87,0.00,CLR,,0.00,0.0,WeatherDisplay:10.37,2013-03-04 07:00:00,
2013-03-04 02:05:00,31.5,28.4,30.06,WNW,289,0.0,0.0,88,0.00,CLR,,0.00,0.0,WeatherDisplay:10.37,2013-03-04 07:05:00,
2013-03-04 02:10:00,31.6,28.5,30.06,WNW,289,0.0,0.0,88,0.00,CLR,,0.00,0.0,WeatherDisplay:10.37,2013-03-04 07:10:00,
2013-03-04 02:15:00,31.6,28.5,30.06,WNW,289,0.0,0.0,88,0.00,CLR,,0.00,0.0,WeatherDisplay:10.37,2013-03-04 07:15:00,
2013-03-04 02:20:00,31.8,28.7,30.06,WNW,289,0.0,0.0,88,0.00,CLR,,0.00,0.0,WeatherDisplay:10.37,2013-03-04 07:20:00,
2013-03-04 02:25:00,32.1,28.9,30.06,WNW,289,0.0,0.0,88,0.00,CLR,,0.00,0.0,WeatherDisplay:10.37,2013-03-04 07:25:00,
2013-03-04 02:30:00,32.2,29.0,30.06,WNW,289,0.0,0.0,88,0.00,CLR,,0.00,0.0,WeatherDisplay:10.37,2013-03-04 07:30:00,
2013-03-04 02:35:00,32.1,28.9,30.06,WNW,289,0.0,0.0,88,0.00,CLR,,0.00,0.0,WeatherDisplay:10.37,2013-03-04 07:35:00,
2013-03-04 02:40:00,32.0,28.8,30.06,WNW,289,0.0,0.1,88,0.00,CLR,,0.00,0.0,WeatherDisplay:10.37,2013-03-04 07:40:00,
2013-03-04 02:45:00,32.6,29.4,30.06,WNW,289,1.4,1.4,88,0.00,CLR,,0.00,0.0,WeatherDisplay:10.37,2013-03-04 07:45:00,
2013-03-04 02:50:00,33.5,30.0,30.06,WNW,289,0.0,0.0,87,0.00,CLR,,0.00,0.0,WeatherDisplay:10.37,2013-03-04 07:50:00,
2013-03-04 02:55:00,34.8,30.8,30.06,WNW,289,1.1,1.1,85,0.00,CLR,,0.00,0.0,WeatherDisplay:10.37,2013-03-04 07:55:00,
2013-03-04 03:00:00,35.7,30.7,30.05,WNW,289,0.0,0.0,82,0.00,CLR,,0.00,0.0,WeatherDisplay:10.37,2013-03-04 08:00:00,
2013-03-04 03:05:00,35.9,30.6,30.05,WNW,289,0.0,0.0,81,0.00,CLR,,0.00,0.0,WeatherDisplay:10.37,2013-03-04 08:05:00,
2013-03-04 03:10:00,36.3,30.4,30.05,WNW,289,0.0,0.1,79,0.00,CLR,,0.00,0.0,WeatherDisplay:10.37,2013-03-04 08:10:00,
2013-03-04 03:15:00,36.2,30.3,30.05,WNW,289,0.0,0.0,79,0.00,CLR,,0.00,0.0,WeatherDisplay:10.37,2013-03-04 08:15:00,
2013-03-04 03:20:00,36.3,30.1,30.05,WNW,289,0.0,0.0,78,0.00,CLR,,0.00,0.0,WeatherDisplay:10.37,2013-03-04 08:20:00,
2013-03-04 03:25:00,36.6,30.4,30.05,WNW,289,0.0,0.0,78,0.00,CLR,,0.00,0.0,WeatherDisplay:10.37,2013-03-04 08:25:00,
2013-03-04 03:30:00,36.6,30.4,30.06,WNW,289,0.0,0.0,78,0.00,CLR,,0.00,0.0,WeatherDisplay:10.37,2013-03-04 08:30:00,
2013-03-04 03:36:00,36.7,30.5,30.06,WNW,289,0.0,0.0,78,0.00,CLR,,0.00,0.0,WeatherDisplay:10.37,2013-03-04 08:36:00,
2013-03-04 03:41:00,36.8,30.3,30.06,WNW,291,1.1,1.1,77,0.00,CLR,,0.00,0.0,WeatherDisplay:10.37,2013-03-04 08:41:00,
2013-03-04 03:46:00,36.9,30.4,30.07,WNW,291,0.0,0.0,77,0.00,CLR,,0.00,0.0,WeatherDisplay:10.37,2013-03-04 08:46:00,
2013-03-04 03:51:00,36.7,30.2,30.07,WNW,291,0.0,0.0,77,0.00,CLR,,0.00,0.0,WeatherDisplay:10.37,2013-03-04 08:51:00,
2013-03-04 03:56:00,36.8,29.9,30.07,WSW,250,0.0,0.0,76,0.00,CLR,,0.00,0.0,WeatherDisplay:10.37,2013-03-04 08:56:00,
2013-03-04 04:01:00,36.6,30.1,30.07,WSW,250,0.0,0.0,77,0.00,CLR,,0.00,0.0,WeatherDisplay:10.37,2013-03-04 09:01:00,
2013-03-04 04:06:00,36.5,30.0,30.07,WSW,250,0.0,0.0,77,0.00,CLR,,0.00,0.0,WeatherDisplay:10.37,2013-03-04 09:06:00,
2013-03-04 04:11:00,36.5,30.0,30.07,WSW,250,0.0,0.0,77,0.00,CLR,,0.00,0.0,WeatherDisplay:10.37,2013-03-04 09:11:00,
2013-03-04 04:16:00,36.6,30.4,30.07,NNW,329,0.0,0.1,78,0.00,CLR,,0.00,0.0,WeatherDisplay:10.37,2013-03-04 09:16:00,
2013-03-04 04:21:00,36.3,29.8,30.07,NNW,329,0.0,0.0,77,0.00,CLR,,0.00,0.0,WeatherDisplay:10.37,2013-03-04 09:21:00,
2013-03-04 04:26:00,36.2,30.0,30.07,NNW,338,2.8,2.8,78,0.00,CLR,,0.00,0.0,WeatherDisplay:10.37,2013-03-04 09:26:00,
2013-03-04 04:35:00,36.3,29.8,30.07,NNW,338,1.4,1.9,77,0.00,CLR,,0.00,0.0,WeatherDisplay:10.37,2013-03-04 09:35:00,
2013-03-04 04:40:00,36.2,29.7,30.07,NNW,338,1.1,0.0,77,0.00,CLR,,0.00,0.0,WeatherDisplay:10.37,2013-03-04 09:40:00,
2013-03-04 04:45:00,36.1,29.6,30.08,NNW,338,0.0,0.0,77,0.00,CLR,,0.00,0.0,WeatherDisplay:10.37,2013-03-04 09:45:00,
2013-03-04 04:50:00,36.0,29.5,30.08,NNW,338,0.0,0.0,77,0.00,CLR,,0.00,0.0,WeatherDisplay:10.37,2013-03-04 09:50:00,
2013-03-04 04:55:00,35.6,29.4,30.08,NNW,338,4.6,4.6,78,0.00,CLR,,0.00,0.0,WeatherDisplay:10.37,2013-03-04 09:55:00,
2013-03-04 05:00:00,35.8,29.6,30.09,NNW,338,1.1,0.0,78,0.00,CLR,,0.00,0.0,WeatherDisplay:10.37,2013-03-04 10:00:00,
2013-03-04 05:05:00,35.6,29.1,30.09,NNW,338,0.0,0.0,77,0.00,CLR,,0.00,0.0,WeatherDisplay:10.37,2013-03-04 10:05:00,
2013-03-04 05:11:00,35.5,29.3,30.09,NNW,338,0.0,0.0,78,0.00,CLR,,0.00,0.0,WeatherDisplay:10.37,2013-03-04 10:11:00,
2013-03-04 05:15:00,35.5,29.3,30.09,NNW,338,0.0,0.0,78,0.00,CLR,,0.00,0.0,WeatherDisplay:10.37,2013-03-04 10:15:00,
2013-03-04 05:21:00,35.5,29.3,30.09,NNW,338,0.0,0.5,78,0.00,CLR,,0.00,0.0,WeatherDisplay:10.37,2013-03-04 10:21:00,
2013-03-04 05:26:00,35.5,29.3,30.09,NNW,338,0.0,0.0,78,0.00,CLR,,0.00,0.0,WeatherDisplay:10.37,2013-03-04 10:26:00,
2013-03-04 05:31:00,35.8,29.6,30.09,NW,322,0.0,0.0,78,0.00,CLR,,0.00,0.0,WeatherDisplay:10.37,2013-03-04 10:31:00,
2013-03-04 05:36:00,35.8,29.6,30.09,NW,322,1.1,1.1,78,0.00,CLR,,0.00,0.0,WeatherDisplay:10.37,2013-03-04 10:36:00,
2013-03-04 05:41:00,35.8,29.6,30.09,NW,322,0.0,0.0,78,0.00,CLR,,0.00,0.0,WeatherDisplay:10.37,2013-03-04 10:41:00,
2013-03-04 05:46:00,35.7,29.2,30.10,NW,322,1.1,1.1,77,0.00,CLR,,0.00,0.0,WeatherDisplay:10.37,2013-03-04 10:46:00,
2013-03-04 05:51:00,35.7,29.5,30.10,NW,322,1.1,1.1,78,0.00,CLR,,0.00,0.0,WeatherDisplay:10.37,2013-03-04 10:51:00,
2013-03-04 05:56:00,35.5,29.3,30.10,NW,322,0.0,0.0,78,0.00,CLR,,0.00,0.0,WeatherDisplay:10.37,2013-03-04 10:56:00,
2013-03-04 06:01:00,35.3,29.1,30.10,NW,322,0.0,0.0,78,0.00,CLR,,0.00,0.0,WeatherDisplay:10.37,2013-03-04 11:01:00,
2013-03-04 06:06:00,35.2,29.3,30.10,NW,322,0.0,0.0,79,0.00,CLR,,0.00,0.0,WeatherDisplay:10.37,2013-03-04 11:06:00,
2013-03-04 06:11:00,35.4,29.5,30.10,NW,322,0.0,0.0,79,0.00,CLR,,0.00,0.0,WeatherDisplay:10.37,2013-03-04 11:11:00,
2013-03-04 06:16:00,35.5,29.3,30.11,NW,322,0.0,0.0,78,0.00,CLR,,0.00,0.0,WeatherDisplay:10.37,2013-03-04 11:16:00,
2013-03-04 06:21:00,35.4,29.2,30.11,NW,322,0.0,0.0,78,0.00,CLR,,0.00,0.0,WeatherDisplay:10.37,2013-03-04 11:21:00,
2013-03-04 06:26:00,35.3,29.1,30.11,NW,322,0.0,0.0,78,0.00,CLR,,0.00,0.0,WeatherDisplay:10.37,2013-03-04 11:26:00,
2013-03-04 06:31:00,35.3,29.4,30.11,NW,322,0.0,0.0,79,0.00,CLR,,0.00,0.0,WeatherDisplay:10.37,2013-03-04 11:31:00,
2013-03-04 06:36:00,35.0,29.1,30.11,NW,322,0.0,0.0,79,0.00,CLR,,0.00,0.0,WeatherDisplay:10.37,2013-03-04 11:36:00,
2013-03-04 06:41:00,35.0,29.1,30.11,NW,322,0.0,0.0,79,0.00,CLR,,0.00,0.0,WeatherDisplay:10.37,2013-03-04 11:41:00,
2013-03-04 06:46:00,34.8,29.0,30.12,NW,322,0.0,0.0,79,0.00,CLR,,0.00,0.0,WeatherDisplay:10.37,2013-03-04 11:46:00,
2013-03-04 06:51:00,34.8,29.3,30.12,NW,322,0.0,0.0,80,0.00,CLR,,0.00,5.0,WeatherDisplay:10.37,2013-03-04 11:51:00,
2013-03-04 06:56:00,34.6,29.1,30.12,NW,322,0.0,0.0,80,0.00,CLR,,0.00,9.0,WeatherDisplay:10.37,2013-03-04 11:56:00,
2013-03-04 07:01:00,34.5,29.0,30.12,NW,322,0.0,0.0,80,0.00,CLR,,0.00,12.0,WeatherDisplay:10.37,2013-03-04 12:01:00,
2013-03-04 07:06:00,34.6,29.4,30.12,NW,322,0.0,0.0,81,0.00,CLR,,0.00,18.0,WeatherDisplay:10.37,2013-03-04 12:06:00,
2013-03-04 07:11:00,34.5,29.3,30.12,NW,322,0.0,0.0,81,0.00,CLR,,0.00,21.0,WeatherDisplay:10.37,2013-03-04 12:11:00,
2013-03-04 07:16:00,34.5,29.6,30.12,NW,322,0.0,0.0,82,0.00,CLR,,0.00,26.0,WeatherDisplay:10.37,2013-03-04 12:16:00,
2013-03-04 07:21:00,34.7,29.8,30.12,NW,322,0.0,0.0,82,0.00,CLR,,0.00,30.0,WeatherDisplay:10.37,2013-03-04 12:21:00,
2013-03-04 07:26:00,35.0,30.1,30.12,NW,322,0.0,0.0,82,0.00,CLR,,0.00,33.0,WeatherDisplay:10.37,2013-03-04 12:26:00,
2013-03-04 07:31:00,35.5,30.5,30.13,NW,322,0.0,0.0,82,0.00,CLR,,0.00,53.0,WeatherDisplay:10.37,2013-03-04 12:31:00,
2013-03-04 07:36:00,35.9,30.6,30.13,NW,322,0.0,0.0,81,0.00,CLR,,0.00,151.0,WeatherDisplay:10.37,2013-03-04 12:36:00,
2013-03-04 07:41:00,36.7,31.4,30.13,NW,322,2.3,2.3,81,0.00,CLR,,0.00,167.0,WeatherDisplay:10.37,2013-03-04 12:41:00,
2013-03-04 07:46:00,38.3,32.7,30.13,NNW,329,2.3,2.3,80,0.00,CLR,,0.00,179.0,WeatherDisplay:10.37,2013-03-04 12:46:00,
2013-03-04 07:51:00,40.1,32.8,30.13,North,10,4.6,4.6,75,0.00,CLR,,0.00,204.0,WeatherDisplay:10.37,2013-03-04 12:51:00,
2013-03-04 07:56:00,41.0,32.3,30.13,North,360,4.6,4.6,71,0.00,CLR,,0.00,221.0,WeatherDisplay:10.37,2013-03-04 12:56:00,
2013-03-04 08:01:00,41.6,32.2,30.13,North,360,4.6,4.6,69,0.00,CLR,,0.00,244.0,WeatherDisplay:10.37,2013-03-04 13:01:00,
2013-03-04 08:06:00,41.9,30.6,30.13,North,9,5.8,6.7,64,0.00,CLR,,0.00,260.0,WeatherDisplay:10.37,2013-03-04 13:06:00,
2013-03-04 08:12:00,42.5,30.8,30.13,NNW,346,4.1,4.1,63,0.00,CLR,,0.00,281.0,WeatherDisplay:10.37,2013-03-04 13:12:00,
2013-03-04 08:17:00,43.1,31.0,30.13,North,360,5.8,5.8,62,0.00,CLR,,0.00,301.0,WeatherDisplay:10.37,2013-03-04 13:17:00,
2013-03-04 08:22:00,43.6,30.2,30.13,North,355,9.2,9.2,59,0.00,CLR,,0.00,318.0,WeatherDisplay:10.37,2013-03-04 13:22:00,
2013-03-04 08:27:00,44.0,29.3,30.13,North,349,9.2,9.2,56,0.00,CLR,,0.00,339.0,WeatherDisplay:10.37,2013-03-04 13:27:00,
2013-03-04 08:32:00,44.7,29.5,30.13,NW,313,6.9,7.1,55,0.00,CLR,,0.00,359.0,WeatherDisplay:10.37,2013-03-04 13:32:00,
2013-03-04 08:37:00,45.1,29.0,30.13,NNW,338,6.9,6.9,53,0.00,CLR,,0.00,376.0,WeatherDisplay:10.37,2013-03-04 13:37:00,
2013-03-04 08:42:00,45.6,29.9,30.13,NNE,21,12.7,12.7,54,0.00,CLR,,0.00,396.0,WeatherDisplay:10.37,2013-03-04 13:42:00,
2013-03-04 08:47:00,45.7,28.6,30.13,North,355,6.9,6.9,51,0.00,CLR,,0.00,413.0,WeatherDisplay:10.37,2013-03-04 13:47:00,
2013-03-04 08:52:00,46.5,29.8,30.13,NNW,348,4.6,4.6,52,0.00,CLR,,0.00,429.0,WeatherDisplay:10.37,2013-03-04 13:52:00,
2013-03-04 08:57:00,47.4,30.6,30.13,NNW,346,5.8,5.8,52,0.00,CLR,,0.00,450.0,WeatherDisplay:10.37,2013-03-04 13:57:00,
2013-03-04 09:02:00,47.4,28.2,30.13,North,355,11.5,11.5,47,0.00,CLR,,0.00,466.0,WeatherDisplay:10.37,2013-03-04 14:02:00,
2013-03-04 09:07:00,47.6,28.9,30.13,NNE,28,9.2,9.2,48,0.00,CLR,,0.00,483.0,WeatherDisplay:10.37,2013-03-04 14:07:00,
2013-03-04 09:12:00,47.7,28.9,30.13,NNW,336,9.2,9.2,48,0.00,CLR,,0.00,499.0,WeatherDisplay:10.37,2013-03-04 14:12:00,
2013-03-04 09:17:00,48.1,28.8,30.14,NNW,331,6.9,6.9,47,0.00,CLR,,0.00,517.0,WeatherDisplay:10.37,2013-03-04 14:17:00,
2013-03-04 09:22:00,49.0,28.6,30.14,NNW,328,6.9,6.9,45,0.00,CLR,,0.00,533.0,WeatherDisplay:10.37,2013-03-04 14:22:00,
2013-03-04 09:27:00,49.0,28.6,30.14,NNW,342,13.8,13.8,45,0.00,CLR,,0.00,552.0,WeatherDisplay:10.37,2013-03-04 14:27:00,
2013-03-04 09:32:00,49.4,28.4,30.15,NNW,344,6.9,6.9,44,0.00,CLR,,0.00,566.0,WeatherDisplay:10.37,2013-03-04 14:32:00,
2013-03-04 09:37:00,50.0,28.4,30.15,NNW,333,8.1,8.1,43,0.00,CLR,,0.00,584.0,WeatherDisplay:10.37,2013-03-04 14:37:00,
2013-03-04 09:42:00,50.0,28.4,30.15,North,360,9.6,9.6,43,0.00,CLR,,0.00,598.0,WeatherDisplay:10.37,2013-03-04 14:42:00,
2013-03-04 09:47:00,50.5,28.8,30.15,North,5,12.7,12.7,43,0.00,CLR,,0.00,612.0,WeatherDisplay:10.37,2013-03-04 14:47:00,
2013-03-04 09:52:00,51.3,30.7,30.15,NNE,12,6.9,6.9,45,0.00,CLR,,0.00,628.0,WeatherDisplay:10.37,2013-03-04 14:52:00,
2013-03-04 09:57:00,51.3,29.0,30.15,North,355,9.6,9.6,42,0.00,CLR,,0.00,640.0,WeatherDisplay:10.37,2013-03-04 14:57:00,
2013-03-04 10:02:00,51.8,28.2,30.15,North,355,9.2,9.2,40,0.00,CLR,,0.00,654.0,WeatherDisplay:10.37,2013-03-04 15:02:00,
2013-03-04 10:07:00,52.3,29.3,30.15,NE,51,9.2,9.2,41,0.00,CLR,,0.00,670.0,WeatherDisplay:10.37,2013-03-04 15:07:00,
2013-03-04 10:12:00,52.4,28.1,30.15,NNW,337,6.9,6.9,39,0.00,CLR,,0.00,679.0,WeatherDisplay:10.37,2013-03-04 15:12:00,
2013-03-04 10:17:00,52.9,28.0,30.15,NNW,329,8.3,8.3,38,0.00,CLR,,0.00,691.0,WeatherDisplay:10.37,2013-03-04 15:17:00,
2013-03-04 10:22:00,53.6,29.2,30.15,North,355,12.4,12.4,39,0.00,CLR,,0.00,705.0,WeatherDisplay:10.37,2013-03-04 15:22:00,
2013-03-04 10:27:00,53.7,28.0,30.15,NW,311,6.9,6.9,37,0.00,CLR,,0.00,717.0,WeatherDisplay:10.37,2013-03-04 15:27:00,
2013-03-04 10:32:00,53.5,26.5,30.15,NNW,330,8.1,8.1,35,0.00,CLR,,0.00,728.0,WeatherDisplay:10.37,2013-03-04 15:32:00,
2013-03-04 10:37:00,53.6,27.3,30.15,NNW,327,6.9,7.2,36,0.00,CLR,,0.00,742.0,WeatherDisplay:10.37,2013-03-04 15:37:00,
2013-03-04 10:42:00,53.5,27.8,30.15,NNW,331,13.8,13.8,37,0.00,CLR,,0.00,751.0,WeatherDisplay:10.37,2013-03-04 15:42:00,
2013-03-04 10:47:00,54.5,28.1,30.16,NNW,339,5.8,6.1,36,0.00,CLR,,0.00,759.0,WeatherDisplay:10.37,2013-03-04 15:47:00,
2013-03-04 10:52:00,54.8,26.9,30.16,NE,34,4.6,4.6,34,0.00,CLR,,0.00,772.0,WeatherDisplay:10.37,2013-03-04 15:52:00,
2013-03-04 10:57:00,56.3,30.3,30.16,WSW,241,9.2,9.2,37,0.00,CLR,,0.00,775.0,WeatherDisplay:10.37,2013-03-04 15:57:00,
2013-03-04 11:02:00,56.3,28.3,30.16,WNW,284,4.1,4.1,34,0.00,CLR,,0.00,786.0,WeatherDisplay:10.37,2013-03-04 16:02:00,
2013-03-04 11:07:00,55.3,28.1,30.16,NW,320,2.8,2.8,35,0.00,CLR,,0.00,802.0,WeatherDisplay:10.37,2013-03-04 16:07:00,
2013-03-04 11:12:00,55.4,29.5,30.16,NNE,22,6.9,7.5,37,0.00,CLR,,0.00,805.0,WeatherDisplay:10.37,2013-03-04 16:12:00,
2013-03-04 11:17:00,55.1,28.6,30.16,NNW,346,4.1,4.1,36,0.00,CLR,,0.00,814.0,WeatherDisplay:10.37,2013-03-04 16:17:00,
2013-03-04 11:22:00,56.4,29.1,30.16,North,360,9.2,9.2,35,0.00,CLR,,0.00,821.0,WeatherDisplay:10.37,2013-03-04 16:22:00,
2013-03-04 11:27:00,56.6,27.8,30.16,North,360,6.9,7.5,33,0.00,CLR,,0.00,826.0,WeatherDisplay:10.37,2013-03-04 16:27:00,
2013-03-04 11:32:00,56.5,26.2,30.15,NNW,340,4.6,4.6,31,0.00,CLR,,0.00,835.0,WeatherDisplay:10.37,2013-03-04 16:32:00,
2013-03-04 11:37:00,56.5,29.1,30.15,WSW,246,4.6,4.6,35,0.00,CLR,,0.00,837.0,WeatherDisplay:10.37,2013-03-04 16:37:00,
2013-03-04 11:42:00,57.8,29.6,30.15,North,360,6.9,6.9,34,0.00,CLR,,0.00,847.0,WeatherDisplay:10.37,2013-03-04 16:42:00,
2013-03-04 11:47:00,57.6,27.2,30.15,North,355,2.3,2.3,31,0.00,CLR,,0.00,854.0,WeatherDisplay:10.37,2013-03-04 16:47:00,
2013-03-04 11:52:00,57.8,26.5,30.15,WNW,296,2.3,2.3,30,0.00,CLR,,0.00,854.0,WeatherDisplay:10.37,2013-03-04 16:52:00,
2013-03-04 11:57:00,57.3,26.9,30.15,SW,236,2.3,2.8,31,0.00,CLR,,0.00,856.0,WeatherDisplay:10.37,2013-03-04 16:57:00,
2013-03-04 12:02:00,57.6,26.4,30.14,North,355,4.6,4.6,30,0.00,CLR,,0.00,861.0,WeatherDisplay:10.37,2013-03-04 17:02:00,
2013-03-04 12:07:00,58.6,28.8,30.14,ENE,67,4.4,4.4,32,0.00,CLR,,0.00,867.0,WeatherDisplay:10.37,2013-03-04 17:07:00,
2013-03-04 12:12:00,60.0,29.2,30.14,North,5,5.5,5.5,31,0.00,CLR,,0.00,868.0,WeatherDisplay:10.37,2013-03-04 17:12:00,
2013-03-04 12:17:00,59.4,27.1,30.13,North,5,4.6,4.6,29,0.00,CLR,,0.00,870.0,WeatherDisplay:10.37,2013-03-04 17:17:00,
2013-03-04 12:22:00,58.7,28.9,30.13,North,5,9.6,9.6,32,0.00,CLR,,0.00,870.0,WeatherDisplay:10.37,2013-03-04 17:22:00,
2013-03-04 12:27:00,60.3,30.3,30.13,North,5,5.8,5.8,32,0.00,CLR,,0.00,870.0,WeatherDisplay:10.37,2013-03-04 17:27:00,
2013-03-04 12:32:00,58.6,25.6,30.12,NNE,17,11.5,11.5,28,0.00,CLR,,0.00,868.0,WeatherDisplay:10.37,2013-03-04 17:32:00,
2013-03-04 12:37:00,58.0,26.7,30.12,NNW,347,2.3,2.3,30,0.00,CLR,,0.00,870.0,WeatherDisplay:10.37,2013-03-04 17:37:00,
2013-03-04 12:42:00,57.9,26.6,30.12,NNW,342,4.6,4.6,30,0.00,CLR,,0.00,872.0,WeatherDisplay:10.37,2013-03-04 17:42:00,
2013-03-04 12:47:00,59.5,30.3,30.12,NNW,332,5.8,5.8,33,0.00,CLR,,0.00,868.0,WeatherDisplay:10.37,2013-03-04 17:47:00,
2013-03-04 12:52:00,59.3,27.8,30.12,NNE,22,5.8,5.8,30,0.00,CLR,,0.00,868.0,WeatherDisplay:10.37,2013-03-04 17:52:00,
2013-03-04 12:57:00,59.9,27.5,30.12,NNW,334,2.8,3.2,29,0.00,CLR,,0.00,861.0,WeatherDisplay:10.37,2013-03-04 17:57:00,
2013-03-04 13:02:00,59.7,29.8,30.11,North,349,2.3,2.3,32,0.00,CLR,,0.00,861.0,WeatherDisplay:10.37,2013-03-04 18:02:00,
2013-03-04 13:07:00,61.5,29.7,30.11,WSW,241,8.3,8.3,30,0.00,CLR,,0.00,861.0,WeatherDisplay:10.37,2013-03-04 18:07:00,
2013-03-04 13:12:00,60.7,28.2,30.11,West,265,5.8,5.8,29,0.00,CLR,,0.00,854.0,WeatherDisplay:10.37,2013-03-04 18:12:00,
2013-03-04 13:17:00,61.6,29.0,30.10,WSW,238,4.6,4.6,29,0.00,CLR,,0.00,849.0,WeatherDisplay:10.37,2013-03-04 18:17:00,
2013-03-04 13:23:00,62.4,30.5,30.10,SW,217,5.8,5.8,30,0.00,CLR,,0.00,844.0,WeatherDisplay:10.37,2013-03-04 18:23:00,
2013-03-04 13:28:00,62.5,32.2,30.10,North,5,11.5,11.5,32,0.00,CLR,,0.00,840.0,WeatherDisplay:10.37,2013-03-04 18:28:00,
2013-03-04 13:29:00,62.5,31.4,30.09,NNW,334,8.3,8.3,31,0.00,CLR,,0.00,837.0,WeatherDisplay:10.37,2013-03-04 18:29:00,
2013-03-04 13:34:00,61.9,30.9,30.09,NNW,348,5.8,6.5,31,0.00,CLR,,0.00,833.0,WeatherDisplay:10.37,2013-03-04 18:34:00,
2013-03-04 13:39:00,62.3,31.3,30.09,NE,42,2.3,2.3,31,0.00,CLR,,0.00,824.0,WeatherDisplay:10.37,2013-03-04 18:39:00,
2013-03-04 13:44:00,62.7,31.6,30.08,North,351,6.9,6.9,31,0.00,CLR,,0.00,819.0,WeatherDisplay:10.37,2013-03-04 18:44:00,
2013-03-04 13:50:00,62.6,33.1,30.08,WNW,300,8.1,8.1,33,0.00,CLR,,0.00,814.0,WeatherDisplay:10.37,2013-03-04 18:50:00,
2013-03-04 13:55:00,61.8,29.2,30.08,NW,317,5.5,5.5,29,0.00,CLR,,0.00,803.0,WeatherDisplay:10.37,2013-03-04 18:55:00,
2013-03-04 14:00:00,62.3,32.0,30.08,North,360,6.9,6.9,32,0.00,CLR,,0.00,795.0,WeatherDisplay:10.37,2013-03-04 19:00:00,
2013-03-04 14:05:00,62.6,30.7,30.08,NNW,348,4.6,4.6,30,0.00,CLR,,0.00,788.0,WeatherDisplay:10.37,2013-03-04 19:05:00,
2013-03-04 14:10:00,62.3,30.4,30.08,NNW,344,5.8,5.8,30,0.00,CLR,,0.00,779.0,WeatherDisplay:10.37,2013-03-04 19:10:00,
2013-03-04 14:15:00,63.2,30.4,30.07,West,269,4.6,4.6,29,0.00,CLR,,0.00,768.0,WeatherDisplay:10.37,2013-03-04 19:15:00,
2013-03-04 14:20:00,64.9,34.3,30.07,SW,226,6.9,6.9,32,0.00,CLR,,0.00,756.0,WeatherDisplay:10.37,2013-03-04 19:20:00,
2013-03-04 14:25:00,65.3,32.2,30.07,SW,228,5.8,5.8,29,0.00,CLR,,0.00,749.0,WeatherDisplay:10.37,2013-03-04 19:25:00,
2013-03-04 14:30:00,65.8,34.3,30.07,South,190,5.8,5.8,31,0.00,CLR,,0.00,737.0,WeatherDisplay:10.37,2013-03-04 19:30:00,
2013-03-04 14:35:00,65.5,30.6,30.07,NW,311,2.3,2.3,27,0.00,CLR,,0.00,729.0,WeatherDisplay:10.37,2013-03-04 19:35:00,
2013-03-04 14:40:00,64.4,31.4,30.07,North,360,6.9,6.9,29,0.00,CLR,,0.00,712.0,WeatherDisplay:10.37,2013-03-04 19:40:00,
2013-03-04 14:45:00,63.4,30.6,30.07,North,360,1.1,1.1,29,0.00,CLR,,0.00,701.0,WeatherDisplay:10.37,2013-03-04 19:45:00,
2013-03-04 14:50:00,64.2,32.9,30.07,SW,234,9.2,9.2,31,0.00,CLR,,0.00,687.0,WeatherDisplay:10.37,2013-03-04 19:50:00,
2013-03-04 14:55:00,65.9,33.6,30.07,SW,232,5.8,5.8,30,0.00,CLR,,0.00,677.0,WeatherDisplay:10.37,2013-03-04 19:55:00,
2013-03-04 15:00:00,65.4,33.1,30.07,SW,226,8.1,8.1,30,0.00,CLR,,0.00,663.0,WeatherDisplay:10.37,2013-03-04 20:00:00,
2013-03-04 15:05:00,65.5,32.4,30.07,SW,214,5.5,5.5,29,0.00,CLR,,0.00,647.0,WeatherDisplay:10.37,2013-03-04 20:05:00,
2013-03-04 15:10:00,65.5,34.0,30.07,SW,227,6.9,6.9,31,0.00,CLR,,0.00,636.0,WeatherDisplay:10.37,2013-03-04 20:10:00,
2013-03-04 15:15:00,66.1,33.7,30.06,SSW,209,5.8,5.8,30,0.00,CLR,,0.00,619.0,WeatherDisplay:10.37,2013-03-04 20:15:00,
2013-03-04 15:20:00,66.1,32.9,30.06,SW,225,6.9,6.9,29,0.00,CLR,,0.00,605.0,WeatherDisplay:10.37,2013-03-04 20:20:00,
2013-03-04 15:25:00,64.7,32.5,30.06,SW,225,2.3,2.3,30,0.00,CLR,,0.00,591.0,WeatherDisplay:10.37,2013-03-04 20:25:00,
2013-03-04 15:30:00,64.5,32.4,30.05,SW,226,4.6,4.6,30,0.00,CLR,,0.00,385.0,WeatherDisplay:10.37,2013-03-04 20:30:00,
2013-03-04 15:35:00,64.5,33.2,30.05,SSW,202,5.8,5.8,31,0.00,CLR,,0.00,69.0,WeatherDisplay:10.37,2013-03-04 20:35:00,
2013-03-04 15:40:00,62.7,30.8,30.05,SW,216,2.3,2.3,30,0.00,CLR,,0.00,213.0,WeatherDisplay:10.37,2013-03-04 20:40:00,
2013-03-04 15:45:00,62.2,32.0,30.04,SW,219,3.5,3.5,32,0.00,CLR,,0.00,69.0,WeatherDisplay:10.37,2013-03-04 20:45:00,
2013-03-04 15:50:00,62.0,32.5,30.04,SW,229,6.6,6.6,33,0.00,CLR,,0.00,169.0,WeatherDisplay:10.37,2013-03-04 20:50:00,
2013-03-04 15:55:00,62.7,33.2,30.04,SW,229,6.6,6.6,33,0.00,CLR,,0.00,58.0,WeatherDisplay:10.37,2013-03-04 20:55:00,
2013-03-04 16:00:00,63.1,31.9,30.04,SW,219,6.9,6.9,31,0.00,CLR,,0.00,98.0,WeatherDisplay:10.37,2013-03-04 21:00:00,
2013-03-04 16:05:00,62.9,33.3,30.04,SW,221,6.9,6.9,33,0.00,CLR,,0.00,76.0,WeatherDisplay:10.37,2013-03-04 21:05:00,
2013-03-04 16:10:00,62.9,33.3,30.04,SW,222,4.6,4.6,33,0.00,CLR,,0.00,46.0,WeatherDisplay:10.37,2013-03-04 21:10:00,
2013-03-04 16:15:00,62.3,32.0,30.04,NNW,339,3.5,3.5,32,0.00,CLR,,0.00,46.0,WeatherDisplay:10.37,2013-03-04 21:15:00,
2013-03-04 16:20:00,61.8,33.8,30.04,NNW,340,5.5,5.5,35,0.00,CLR,,0.00,51.0,WeatherDisplay:10.37,2013-03-04 21:20:00,
2013-03-04 16:25:00,61.8,32.4,30.04,WSW,252,0.0,2.2,33,0.00,CLR,,0.00,134.0,WeatherDisplay:10.37,2013-03-04 21:25:00,
2013-03-04 16:30:00,61.7,33.0,30.04,WSW,254,1.1,2.7,34,0.00,CLR,,0.00,54.0,WeatherDisplay:10.37,2013-03-04 21:30:00,
2013-03-04 16:35:00,61.4,32.8,30.04,WSW,254,0.0,0.7,34,0.00,CLR,,0.00,77.0,WeatherDisplay:10.37,2013-03-04 21:35:00,
2013-03-04 16:41:00,61.7,34.5,30.04,WSW,254,2.3,2.3,36,0.00,CLR,,0.00,151.0,WeatherDisplay:10.37,2013-03-04 21:41:00,
2013-03-04 16:46:00,61.5,34.3,30.04,WSW,254,2.8,3.2,36,0.00,CLR,,0.00,54.0,WeatherDisplay:10.37,2013-03-04 21:46:00,
2013-03-04 16:51:00,61.5,32.1,30.04,WSW,254,1.1,1.1,33,0.00,CLR,,0.00,62.0,WeatherDisplay:10.37,2013-03-04 21:51:00,
2013-03-04 16:56:00,62.0,34.0,30.04,SW,223,6.9,6.9,35,0.00,CLR,,0.00,84.0,WeatherDisplay:10.37,2013-03-04 21:56:00,
2013-03-04 17:01:00,62.1,33.4,30.04,SW,223,5.8,5.8,34,0.00,CLR,,0.00,47.0,WeatherDisplay:10.37,2013-03-04 22:01:00,
2013-03-04 17:06:00,61.9,33.9,30.04,SW,222,5.8,5.8,35,0.00,CLR,,0.00,62.0,WeatherDisplay:10.37,2013-03-04 22:06:00,
2013-03-04 17:11:00,61.7,33.7,30.04,SW,219,5.8,5.8,35,0.00,CLR,,0.00,35.0,WeatherDisplay:10.37,2013-03-04 22:11:00,
2013-03-04 17:16:00,61.6,32.9,30.05,SW,221,3.5,3.5,34,0.00,FEW,,0.00,35.0,WeatherDisplay:10.37,2013-03-04 22:16:00,
2013-03-04 17:21:00,61.1,33.9,30.05,SW,221,0.0,0.0,36,0.00,FEW,,0.00,35.0,WeatherDisplay:10.37,2013-03-04 22:21:00,
2013-03-04 17:26:00,60.4,33.3,30.05,SW,221,0.0,0.0,36,0.00,FEW,,0.00,33.0,WeatherDisplay:10.37,2013-03-04 22:26:00,
2013-03-04 17:31:00,60.1,34.4,30.05,SW,221,0.0,0.0,38,0.00,FEW,,0.00,32.0,WeatherDisplay:10.37,2013-03-04 22:31:00,
2013-03-04 17:36:00,60.2,33.1,30.05,SW,225,4.6,4.6,36,0.00,FEW,,0.00,32.0,WeatherDisplay:10.37,2013-03-04 22:36:00,
2013-03-04 17:41:00,60.8,34.3,30.05,SW,225,4.6,4.6,37,0.00,FEW,,0.00,30.0,WeatherDisplay:10.37,2013-03-04 22:41:00,
2013-03-04 17:46:00,60.7,34.3,30.05,SW,225,3.5,3.5,37,0.00,FEW,,0.00,26.0,WeatherDisplay:10.37,2013-03-04 22:46:00,
2013-03-04 17:51:00,60.6,34.2,30.05,SW,225,0.0,0.0,37,0.00,FEW,,0.00,25.0,WeatherDisplay:10.37,2013-03-04 22:51:00,
2013-03-04 17:56:00,60.1,35.0,30.05,SW,225,4.6,4.6,39,0.00,FEW,,0.00,23.0,WeatherDisplay:10.37,2013-03-04 22:56:00,
2013-03-04 18:01:00,59.6,34.6,30.05,SW,225,3.5,3.5,39,0.00,FEW,,0.00,21.0,WeatherDisplay:10.37,2013-03-04 23:01:00,
2013-03-04 18:06:00,59.5,33.9,30.05,SW,225,2.3,2.3,38,0.00,FEW,,0.00,18.0,WeatherDisplay:10.37,2013-03-04 23:06:00,
2013-03-04 18:11:00,59.7,34.0,30.05,SW,225,2.3,2.3,38,0.00,FEW,,0.00,14.0,WeatherDisplay:10.37,2013-03-04 23:11:00,
2013-03-04 18:16:00,58.6,35.0,30.06,SW,225,0.0,0.0,41,0.00,FEW,,0.00,12.0,WeatherDisplay:10.37,2013-03-04 23:16:00,
2013-03-04 18:21:00,57.1,35.4,30.06,SW,225,0.0,0.0,44,0.00,FEW,,0.00,9.0,WeatherDisplay:10.37,2013-03-04 23:21:00,
2013-03-04 18:26:00,56.1,37.2,30.06,SW,225,0.0,0.0,49,0.00,FEW,,0.00,5.0,WeatherDisplay:10.37,2013-03-04 23:26:00,
2013-03-04 18:31:00,55.3,36.5,30.06,SW,225,0.0,0.0,49,0.00,FEW,,0.00,0.0,WeatherDisplay:10.37,2013-03-04 23:31:00,
2013-03-04 18:36:00,54.6,36.3,30.06,SW,225,0.0,0.0,50,0.00,FEW,,0.00,0.0,WeatherDisplay:10.37,2013-03-04 23:36:00,
2013-03-04 18:41:00,54.2,36.5,30.06,SW,225,0.0,0.0,51,0.00,FEW,,0.00,0.0,WeatherDisplay:10.37,2013-03-04 23:41:00,
2013-03-04 18:46:00,53.6,36.9,30.07,SE,145,5.8,5.8,53,0.00,FEW,,0.00,0.0,WeatherDisplay:10.37,2013-03-04 23:46:00,
2013-03-04 18:51:00,54.1,38.3,30.07,ESE,109,4.6,4.6,55,0.00,FEW,,0.00,0.0,WeatherDisplay:10.37,2013-03-04 23:51:00,
2013-03-04 18:56:00,54.3,38.9,30.07,ESE,123,5.8,5.8,56,0.00,FEW,,0.00,0.0,WeatherDisplay:10.37,2013-03-04 23:56:00,
2013-03-04 19:01:00,54.1,39.2,30.07,ESE,123,2.2,2.2,57,0.00,FEW,,0.00,0.0,WeatherDisplay:10.37,2013-03-05 00:01:00,
2013-03-04 19:06:00,53.8,39.4,30.07,SSE,163,2.3,2.3,58,0.00,FEW,,0.00,0.0,WeatherDisplay:10.37,2013-03-05 00:06:00,
2013-03-04 19:11:00,53.4,39.0,30.07,SSE,163,1.1,1.1,58,0.00,FEW,,0.00,0.0,WeatherDisplay:10.37,2013-03-05 00:11:00,
2013-03-04 19:16:00,53.3,39.3,30.07,SSE,163,2.3,2.3,59,0.00,FEW,,0.00,0.0,WeatherDisplay:10.37,2013-03-05 00:16:00,
2013-03-04 19:21:00,53.0,39.5,30.07,SSE,163,2.3,2.3,60,0.00,FEW,,0.00,0.0,WeatherDisplay:10.37,2013-03-05 00:21:00,
2013-03-04 19:26:00,52.9,39.4,30.07,SSE,163,2.3,2.3,60,0.00,FEW,,0.00,0.0,WeatherDisplay:10.37,2013-03-05 00:26:00,
2013-03-04 19:31:00,52.7,39.6,30.07,SSE,163,1.1,1.1,61,0.00,FEW,,0.00,0.0,WeatherDisplay:10.37,2013-03-05 00:31:00,
2013-03-04 19:36:00,52.6,39.5,30.07,SSE,163,2.3,2.3,61,0.00,FEW,,0.00,0.0,WeatherDisplay:10.37,2013-03-05 00:36:00,
2013-03-04 19:41:00,52.3,39.2,30.07,SSE,163,1.1,1.1,61,0.00,FEW,,0.00,0.0,WeatherDisplay:10.37,2013-03-05 00:41:00,
2013-03-04 19:46:00,52.2,39.6,30.08,SSE,163,2.2,2.2,62,0.00,FEW,,0.00,0.0,WeatherDisplay:10.37,2013-03-05 00:46:00,
2013-03-04 19:51:00,51.7,39.5,30.08,SSE,163,1.1,1.1,63,0.00,FEW,,0.00,0.0,WeatherDisplay:10.37,2013-03-05 00:51:00,
2013-03-04 19:56:00,51.3,39.5,30.08,SSE,163,0.0,0.0,64,0.00,FEW,,0.00,0.0,WeatherDisplay:10.37,2013-03-05 00:56:00,
2013-03-04 20:01:00,50.6,40.0,30.09,SSE,163,0.0,0.0,67,0.00,FEW,,0.00,0.0,WeatherDisplay:10.37,2013-03-05 01:01:00,
2013-03-04 20:06:00,49.9,39.8,30.09,SSE,163,0.0,0.0,68,0.00,FEW,,0.00,0.0,WeatherDisplay:10.37,2013-03-05 01:06:00,
2013-03-04 20:11:00,49.3,39.6,30.09,SSE,163,1.1,0.0,69,0.00,FEW,,0.00,0.0,WeatherDisplay:10.37,2013-03-05 01:11:00,
2013-03-04 20:16:00,49.3,39.9,30.09,SSE,163,0.0,0.0,70,0.00,FEW,,0.00,0.0,WeatherDisplay:10.37,2013-03-05 01:16:00,
2013-03-04 20:21:00,48.7,39.7,30.09,SSE,163,0.0,0.0,71,0.00,FEW,,0.00,0.0,WeatherDisplay:10.37,2013-03-05 01:21:00,
2013-03-04 20:26:00,48.3,39.7,30.09,SSE,163,1.1,0.0,72,0.00,FEW,,0.00,0.0,WeatherDisplay:10.37,2013-03-05 01:26:00,
2013-03-04 20:31:00,48.2,39.9,30.09,SSE,163,0.0,0.0,73,0.00,FEW,,0.00,0.0,WeatherDisplay:10.37,2013-03-05 01:31:00,
2013-03-04 20:36:00,48.1,39.9,30.09,SSE,163,0.0,0.0,73,0.00,FEW,,0.00,0.0,WeatherDisplay:10.37,2013-03-05 01:36:00,
2013-03-04 20:42:00,47.8,39.6,30.09,SSE,163,0.0,0.1,73,0.00,FEW,,0.00,0.0,WeatherDisplay:10.37,2013-03-05 01:42:00,
2013-03-04 20:47:00,47.6,39.4,30.09,SSE,163,0.0,0.0,73,0.00,FEW,,0.00,0.0,WeatherDisplay:10.37,2013-03-05 01:47:00,
2013-03-04 20:52:00,47.2,39.7,30.09,SSE,163,0.0,0.0,75,0.00,FEW,,0.00,0.0,WeatherDisplay:10.37,2013-03-05 01:52:00,
2013-03-04 20:57:00,47.1,39.6,30.09,SSE,163,1.1,1.1,75,0.00,FEW,,0.00,0.0,WeatherDisplay:10.37,2013-03-05 01:57:00,
2013-03-04 21:02:00,47.0,39.8,30.09,SSE,163,0.0,0.0,76,0.00,FEW,,0.00,0.0,WeatherDisplay:10.37,2013-03-05 02:02:00,
2013-03-04 21:07:00,46.8,39.3,30.09,SSE,163,1.1,1.1,75,0.00,FEW,,0.00,0.0,WeatherDisplay:10.37,2013-03-05 02:07:00,
2013-03-04 21:12:00,46.5,39.3,30.09,SSE,163,0.0,0.0,76,0.00,FEW,,0.00,0.0,WeatherDisplay:10.37,2013-03-05 02:12:00,
2013-03-04 21:17:00,46.5,39.7,30.10,SSE,163,0.0,0.0,77,0.00,FEW,,0.00,0.0,WeatherDisplay:10.37,2013-03-05 02:17:00,
2013-03-04 21:22:00,46.3,39.8,30.10,SSE,163,0.0,0.0,78,0.00,FEW,,0.00,0.0,WeatherDisplay:10.37,2013-03-05 02:22:00,
2013-03-04 21:27:00,46.0,39.5,30.10,SSE,163,0.0,0.0,78,0.00,FEW,,0.00,0.0,WeatherDisplay:10.37,2013-03-05 02:27:00,
2013-03-04 21:32:00,45.8,39.7,30.09,SSE,163,0.0,0.0,79,0.00,FEW,,0.00,0.0,WeatherDisplay:10.37,2013-03-05 02:32:00,
2013-03-04 21:37:00,45.6,39.8,30.09,SSE,163,0.0,0.0,80,0.00,FEW,,0.00,0.0,WeatherDisplay:10.37,2013-03-05 02:37:00,
2013-03-04 21:42:00,45.6,39.5,30.09,SSE,163,0.0,0.0,79,0.00,FEW,,0.00,0.0,WeatherDisplay:10.37,2013-03-05 02:42:00,
2013-03-04 21:47:00,45.5,39.4,30.09,SSE,163,0.0,0.0,79,0.00,FEW,,0.00,0.0,WeatherDisplay:10.37,2013-03-05 02:47:00,
2013-03-04 21:52:00,45.5,39.7,30.09,SSE,163,0.0,0.0,80,0.00,FEW,,0.00,0.0,WeatherDisplay:10.37,2013-03-05 02:52:00,
2013-03-04 21:57:00,45.2,39.7,30.09,SSE,163,0.0,0.0,81,0.00,FEW,,0.00,0.0,WeatherDisplay:10.37,2013-03-05 02:57:00,
2013-03-04 22:02:00,45.2,40.0,30.10,SSE,163,0.0,0.0,82,0.00,SCT,,0.00,0.0,WeatherDisplay:10.37,2013-03-05 03:02:00,
2013-03-04 22:07:00,45.3,39.8,30.10,SSE,163,0.0,0.0,81,0.00,SCT,,0.00,0.0,WeatherDisplay:10.37,2013-03-05 03:07:00,
2013-03-04 22:12:00,45.1,39.6,30.10,SSE,163,1.1,0.0,81,0.00,SCT,,0.00,0.0,WeatherDisplay:10.37,2013-03-05 03:12:00,
2013-03-04 22:17:00,45.2,40.0,30.10,SSE,163,0.0,0.0,82,0.00,SCT,,0.00,0.0,WeatherDisplay:10.37,2013-03-05 03:17:00,
2013-03-04 22:22:00,44.8,39.6,30.10,SSE,163,0.0,0.0,82,0.00,SCT,,0.00,0.0,WeatherDisplay:10.37,2013-03-05 03:22:00,
2013-03-04 22:27:00,44.5,39.3,30.10,SSE,163,0.0,0.0,82,0.00,SCT,,0.00,0.0,WeatherDisplay:10.37,2013-03-05 03:27:00,
2013-03-04 22:32:00,44.4,39.6,30.09,SSE,163,1.1,0.0,83,0.00,SCT,,0.00,0.0,WeatherDisplay:10.37,2013-03-05 03:32:00,
2013-03-04 22:37:00,44.5,40.0,30.09,SSE,163,0.0,0.0,84,0.00,SCT,,0.00,0.0,WeatherDisplay:10.37,2013-03-05 03:37:00,
2013-03-04 22:42:00,44.5,39.7,30.09,SSE,163,1.1,1.1,83,0.00,SCT,,0.00,0.0,WeatherDisplay:10.37,2013-03-05 03:42:00,
2013-03-04 22:47:00,44.4,39.9,30.10,SSE,163,2.3,2.3,84,0.00,SCT,,0.00,0.0,WeatherDisplay:10.37,2013-03-05 03:47:00,
2013-03-04 22:52:00,44.5,39.7,30.10,SSE,163,4.6,4.6,83,0.00,SCT,,0.00,0.0,WeatherDisplay:10.37,2013-03-05 03:52:00,
2013-03-04 22:57:00,45.6,40.4,30.10,SSE,164,1.1,1.1,82,0.00,SCT,,0.00,0.0,WeatherDisplay:10.37,2013-03-05 03:57:00,
2013-03-04 23:02:00,45.9,40.4,30.09,SSE,164,2.3,2.3,81,0.00,SCT,,0.00,0.0,WeatherDisplay:10.37,2013-03-05 04:02:00,
2013-03-04 23:07:00,46.5,40.7,30.09,SSE,165,5.8,5.8,80,0.00,SCT,,0.00,0.0,WeatherDisplay:10.37,2013-03-05 04:07:00,
2013-03-04 23:12:00,47.1,40.6,30.09,SSE,165,2.3,3.0,78,0.00,SCT,,0.00,0.0,WeatherDisplay:10.37,2013-03-05 04:12:00,
2013-03-04 23:17:00,46.8,40.3,30.09,SSE,165,4.6,4.6,78,0.00,SCT,,0.00,0.0,WeatherDisplay:10.37,2013-03-05 04:17:00,
2013-03-04 23:22:00,47.0,40.5,30.09,SSW,213,5.8,5.8,78,0.00,SCT,,0.00,0.0,WeatherDisplay:10.37,2013-03-05 04:22:00,
2013-03-04 23:27:00,47.1,40.3,30.09,SW,214,5.8,5.8,77,0.00,SCT,,0.00,0.0,WeatherDisplay:10.37,2013-03-05 04:27:00,
2013-03-04 23:32:00,47.2,40.4,30.09,SW,214,2.3,2.3,77,0.00,SCT,,0.00,0.0,WeatherDisplay:10.37,2013-03-05 04:32:00,
2013-03-04 23:37:00,46.8,40.3,30.09,SW,214,2.3,2.3,78,0.00,SCT,,0.00,0.0,WeatherDisplay:10.37,2013-03-05 04:37:00,
2013-03-04 23:42:00,46.7,40.2,30.09,SW,214,1.1,1.1,78,0.00,SCT,,0.00,0.0,WeatherDisplay:10.37,2013-03-05 04:42:00,
2013-03-04 23:47:00,46.2,39.7,30.09,SW,214,1.1,0.0,78,0.00,SCT,,0.00,0.0,WeatherDisplay:10.37,2013-03-05 04:47:00,
2013-03-04 23:52:00,45.8,39.7,30.09,SW,214,2.3,2.3,79,0.00,SCT,,0.00,0.0,WeatherDisplay:10.37,2013-03-05 04:52:00,
2013-03-04 23:57:00,45.6,39.8,30.09,SW,214,2.3,2.3,80,0.00,SCT,,0.00,0.0,WeatherDisplay:10.37,2013-03-05 04:57:00,